Time,TemperatureF,DewpointF,PressureIn,WindDirection,WindDirectionDegrees,WindSpeedMPH,WindSpeedGustMPH,Humidity,HourlyPrecipIn,Conditions,Clouds,dailyrainin,SolarRadiationWatts/m^2,SoftwareType,DateUTC
2013-09-23 00:06:00,73.9,55.7,29.87,East,96,1.0,3.0,53,0.00,CLR,,0.00,0.0,WeatherDisplay:10.37,2013-09-22 22:06:00,
2013-09-23 00:16:00,73.9,55.7,29.87,ENE,68,2.0,5.0,53,0.00,CLR,,0.00,0.0,WeatherDisplay:10.37,2013-09-22 22:16:00,
2013-09-23 00:26:00,73.9,55.7,29.87,ENE,69,3.0,5.0,53,0.00,CLR,,0.00,0.0,WeatherDisplay:10.37,2013-09-22 22:26:00,
2013-09-23 00:36:00,73.9,55.7,29.85,ENE,66,3.0,7.0,53,0.00,CLR,,0.00,0.0,WeatherDisplay:10.37,2013-09-22 22:36:00,
2013-09-23 00:46:00,73.9,55.7,29.84,East,83,2.0,4.0,53,0.00,CLR,,0.00,0.0,WeatherDisplay:10.37,2013-09-22 22:46:00,
2013-09-23 00:56:00,73.9,55.7,29.87,ENE,58,0.0,1.0,53,0.00,CLR,,0.00,0.0,WeatherDisplay:10.37,2013-09-22 22:56:00,
2013-09-23 01:06:00,73.9,55.7,29.87,ENE,70,1.0,3.0,53,0.00,FEW,,0.00,0.0,WeatherDisplay:10.37,2013-09-22 23:06:00,
2013-09-23 01:16:00,73.9,55.7,29.87,SW,222,2.0,3.0,53,0.00,FEW,,0.00,0.0,WeatherDisplay:10.37,2013-09-22 23:16:00,
2013-09-23 01:26:00,73.9,55.7,29.87,WSW,256,0.0,3.0,53,0.00,FEW,,0.00,0.0,WeatherDisplay:10.37,2013-09-22 23:26:00,
2013-09-23 01:36:00,73.9,55.7,29.87,North,360,2.0,3.0,53,0.00,FEW,,0.00,0.0,WeatherDisplay:10.37,2013-09-22 23:36:00,
2013-09-23 01:46:00,73.9,55.7,29.87,NNE,15,3.0,6.0,53,0.00,FEW,,0.00,0.0,WeatherDisplay:10.37,2013-09-22 23:46:00,
2013-09-23 01:56:00,73.9,55.7,29.87,North,358,6.0,8.0,53,0.00,FEW,,0.00,0.0,WeatherDisplay:10.37,2013-09-22 23:56:00,
2013-09-23 02:06:00,73.9,55.7,29.87,NNE,17,5.0,7.0,53,0.00,SCT,,0.00,0.0,WeatherDisplay:10.37,2013-09-23 00:06:00,
2013-09-23 02:16:00,73.9,55.7,29.87,NNE,26,3.0,7.0,53,0.00,SCT,,0.00,0.0,WeatherDisplay:10.37,2013-09-23 00:16:00,
2013-09-23 02:26:00,73.9,55.7,29.84,NE,42,5.0,7.0,53,0.00,SCT,,0.00,0.0,WeatherDisplay:10.37,2013-09-23 00:26:00,
2013-09-23 02:36:00,73.9,55.7,29.86,NNE,32,2.0,5.0,53,0.00,SCT,,0.00,0.0,WeatherDisplay:10.37,2013-09-23 00:36:00,
2013-09-23 02:46:00,73.9,55.7,29.87,NE,42,5.0,8.0,53,0.00,SCT,,0.00,0.0,WeatherDisplay:10.37,2013-09-23 00:46:00,
2013-09-23 02:56:00,73.9,55.7,29.84,NE,54,3.0,6.0,53,0.00,SCT,,0.00,0.0,WeatherDisplay:10.37,2013-09-23 00:56:00,
2013-09-23 03:06:00,73.9,55.7,29.84,NE,39,3.0,5.0,53,0.00,SCT,,0.00,0.0,WeatherDisplay:10.37,2013-09-23 01:06:00,
2013-09-23 03:16:00,73.9,55.7,29.84,NE,40,3.0,6.0,53,0.00,SCT,,0.00,0.0,WeatherDisplay:10.37,2013-09-23 01:16:00,
2013-09-23 03:26:00,73.9,55.7,29.84,NNE,30,3.0,6.0,53,0.00,SCT,,0.00,0.0,WeatherDisplay:10.37,2013-09-23 01:26:00,
2013-09-23 03:36:00,73.9,55.7,29.84,NNE,16,5.0,8.0,53,0.00,SCT,,0.00,0.0,WeatherDisplay:10.37,2013-09-23 01:36:00,
2013-09-23 03:46:00,73.9,55.7,29.84,North,6,3.0,9.0,53,0.00,SCT,,0.00,0.0,WeatherDisplay:10.37,2013-09-23 01:46:00,
2013-09-23 03:56:00,73.9,55.7,29.84,NNE,14,5.0,6.0,53,0.00,SCT,,0.00,0.0,WeatherDisplay:10.37,2013-09-23 01:56:00,
2013-09-23 04:06:00,73.9,55.7,29.84,NNE,24,3.0,5.0,53,0.00,FEW,,0.00,0.0,WeatherDisplay:10.37,2013-09-23 02:06:00,
2013-09-23 04:16:00,73.9,55.7,29.84,NNE,19,3.0,5.0,53,0.00,FEW,,0.00,0.0,WeatherDisplay:10.37,2013-09-23 02:16:00,
2013-09-23 04:26:00,73.9,55.7,29.84,ENE,60,3.0,5.0,53,0.00,FEW,,0.00,0.0,WeatherDisplay:10.37,2013-09-23 02:26:00,
2013-09-23 04:36:00,73.9,55.7,29.84,NE,55,5.0,6.0,53,0.00,FEW,,0.00,0.0,WeatherDisplay:10.37,2013-09-23 02:36:00,
2013-09-23 04:46:00,73.9,55.7,29.84,NE,49,2.0,6.0,53,0.00,FEW,,0.00,0.0,WeatherDisplay:10.37,2013-09-23 02:46:00,
2013-09-23 04:56:00,73.9,55.7,29.81,East,81,2.0,5.0,53,0.00,FEW,,0.00,0.0,WeatherDisplay:10.37,2013-09-23 02:56:00,
2013-09-23 05:06:00,73.9,55.7,29.81,NE,41,2.0,3.0,53,0.00,CLR,,0.00,0.0,WeatherDisplay:10.37,2013-09-23 03:06:00,
2013-09-23 05:16:00,73.9,55.7,29.81,ENE,69,2.0,5.0,53,0.00,CLR,,0.00,0.0,WeatherDisplay:10.37,2013-09-23 03:16:00,
2013-09-23 05:26:00,73.9,55.7,29.81,NNE,28,2.0,3.0,53,0.00,CLR,,0.00,0.0,WeatherDisplay:10.37,2013-09-23 03:26:00,
2013-09-23 05:36:00,73.9,55.7,29.81,ENE,70,2.0,6.0,53,0.00,CLR,,0.00,0.0,WeatherDisplay:10.37,2013-09-23 03:36:00,
2013-09-23 05:46:00,73.9,55.7,29.81,NE,43,2.0,3.0,53,0.00,CLR,,0.00,0.0,WeatherDisplay:10.37,2013-09-23 03:46:00,
2013-09-23 05:56:00,73.9,55.7,29.84,NE,47,2.0,5.0,53,0.00,CLR,,0.00,0.0,WeatherDisplay:10.37,2013-09-23 03:56:00,
2013-09-23 06:06:00,73.9,55.7,29.82,NNE,29,0.0,5.0,53,0.00,CLR,,0.00,0.0,WeatherDisplay:10.37,2013-09-23 04:06:00,
2013-09-23 06:16:00,73.9,55.7,29.81,ENE,78,0.0,5.0,53,0.00,CLR,,0.00,0.0,WeatherDisplay:10.37,2013-09-23 04:16:00,
2013-09-23 06:26:00,73.9,55.7,29.81,ENE,66,0.0,3.0,53,0.00,CLR,,0.00,0.0,WeatherDisplay:10.37,2013-09-23 04:26:00,
2013-09-23 06:36:00,73.9,55.7,29.83,NNE,23,2.0,4.0,53,0.00,CLR,,0.00,0.0,WeatherDisplay:10.37,2013-09-23 04:36:00,
2013-09-23 06:46:00,73.9,55.7,29.84,NNW,336,1.0,3.0,53,0.00,CLR,,0.00,0.0,WeatherDisplay:10.37,2013-09-23 04:46:00,
2013-09-23 06:56:00,73.9,55.7,29.84,North,352,3.0,5.0,53,0.00,CLR,,0.00,0.0,WeatherDisplay:10.37,2013-09-23 04:56:00,
2013-09-23 07:06:00,73.9,55.7,29.84,NW,320,2.0,4.0,53,0.00,CLR,,0.00,0.0,WeatherDisplay:10.37,2013-09-23 05:06:00,
2013-09-23 07:16:00,73.9,55.7,29.84,NE,44,2.0,5.0,53,0.00,CLR,,0.00,0.0,WeatherDisplay:10.37,2013-09-23 05:16:00,
2013-09-23 07:26:00,73.9,55.7,29.84,ENE,70,2.0,4.0,53,0.00,CLR,,0.00,0.0,WeatherDisplay:10.37,2013-09-23 05:26:00,
2013-09-23 07:36:00,73.9,55.7,29.84,ENE,73,2.0,4.0,53,0.00,CLR,,0.00,0.0,WeatherDisplay:10.37,2013-09-23 05:36:00,
2013-09-23 07:46:00,73.9,55.7,29.84,ESE,104,2.0,4.0,53,0.00,CLR,,0.00,0.0,WeatherDisplay:10.37,2013-09-23 05:46:00,
2013-09-23 07:56:00,73.9,55.7,29.84,East,96,0.0,2.0,53,0.00,CLR,,0.00,0.0,WeatherDisplay:10.37,2013-09-23 05:56:00,
2013-09-23 08:06:00,73.9,55.7,29.84,ENE,64,2.0,5.0,53,0.00,CLR,,0.00,0.0,WeatherDisplay:10.37,2013-09-23 06:06:00,
2013-09-23 08:16:00,73.9,55.7,29.84,East,91,0.0,2.0,53,0.00,CLR,,0.00,0.0,WeatherDisplay:10.37,2013-09-23 06:16:00,
2013-09-23 08:26:00,73.9,55.7,29.84,ESE,102,1.0,2.0,53,0.00,CLR,,0.00,0.0,WeatherDisplay:10.37,2013-09-23 06:26:00,
2013-09-23 08:36:00,73.9,55.7,29.86,NNE,25,1.0,3.0,53,0.00,CLR,,0.00,0.0,WeatherDisplay:10.37,2013-09-23 06:36:00,
2013-09-23 08:46:00,73.9,55.7,29.87,North,2,3.0,4.0,53,0.00,CLR,,0.00,0.0,WeatherDisplay:10.37,2013-09-23 06:46:00,
2013-09-23 08:56:00,73.9,55.7,29.87,North,354,2.0,5.0,53,0.00,OVC,,0.00,0.0,WeatherDisplay:10.37,2013-09-23 06:56:00,
2013-09-23 09:06:00,73.9,55.7,29.87,North,351,2.0,5.0,53,0.00,OVC,,0.00,0.0,WeatherDisplay:10.37,2013-09-23 07:06:00,
2013-09-23 09:16:00,73.9,55.7,29.87,North,6,2.0,6.0,53,0.00,OVC,,0.00,0.0,WeatherDisplay:10.37,2013-09-23 07:16:00,
2013-09-23 09:26:00,73.9,55.7,29.87,NNE,19,6.0,9.0,53,0.00,OVC,,0.00,0.0,WeatherDisplay:10.37,2013-09-23 07:26:00,
2013-09-23 09:36:00,73.9,55.7,29.87,NE,39,8.0,14.0,53,0.00,OVC,,0.00,0.0,WeatherDisplay:10.37,2013-09-23 07:36:00,
2013-09-23 09:46:00,73.9,55.7,29.87,NNE,22,6.0,14.0,53,0.00,OVC,,0.00,0.0,WeatherDisplay:10.37,2013-09-23 07:46:00,
2013-09-23 09:56:00,73.9,55.7,29.87,NNE,25,12.0,18.0,53,0.00,OVC,,0.00,0.0,WeatherDisplay:10.37,2013-09-23 07:56:00,
2013-09-23 10:06:00,73.9,55.7,29.87,NNE,24,6.0,13.0,53,0.00,OVC,,0.00,0.0,WeatherDisplay:10.37,2013-09-23 08:06:00,
2013-09-23 10:16:00,73.9,55.7,29.87,NE,40,6.0,12.0,53,0.00,OVC,,0.00,0.0,WeatherDisplay:10.37,2013-09-23 08:16:00,
2013-09-23 10:26:00,73.9,55.7,29.87,NE,48,5.0,6.0,53,0.00,OVC,,0.00,0.0,WeatherDisplay:10.37,2013-09-23 08:26:00,
2013-09-23 10:36:00,73.9,55.7,29.87,NE,36,6.0,10.0,53,0.00,OVC,,0.00,0.0,WeatherDisplay:10.37,2013-09-23 08:36:00,
2013-09-23 10:46:00,73.9,55.7,29.87,NNE,26,8.0,12.0,53,0.00,OVC,,0.00,0.0,WeatherDisplay:10.37,2013-09-23 08:46:00,
2013-09-23 10:56:00,73.9,55.7,29.87,ENE,66,7.0,14.0,53,0.00,OVC,,0.00,0.0,WeatherDisplay:10.37,2013-09-23 08:56:00,
2013-09-23 11:06:00,73.9,55.7,29.87,NNE,19,9.0,16.0,53,0.00,OVC,,0.00,0.0,WeatherDisplay:10.37,2013-09-23 09:06:00,
2013-09-23 11:16:00,73.9,55.7,29.87,NNE,24,7.0,10.0,53,0.00,OVC,,0.00,0.0,WeatherDisplay:10.37,2013-09-23 09:16:00,
2013-09-23 11:26:00,73.9,55.7,29.90,North,9,12.0,15.0,53,0.00,OVC,,0.00,0.0,WeatherDisplay:10.37,2013-09-23 09:26:00,
2013-09-23 11:36:00,73.9,55.7,29.88,NNE,23,7.0,12.0,53,0.00,OVC,,0.00,0.0,WeatherDisplay:10.37,2013-09-23 09:36:00,
2013-09-23 11:46:00,73.9,55.7,29.87,NNE,19,8.0,14.0,53,0.00,OVC,,0.00,0.0,WeatherDisplay:10.37,2013-09-23 09:46:00,
2013-09-23 11:56:00,73.9,55.7,29.87,North,7,7.0,10.0,53,0.00,OVC,,0.00,0.0,WeatherDisplay:10.37,2013-09-23 09:56:00,
2013-09-23 12:06:00,73.9,55.7,29.89,North,10,9.0,14.0,53,0.00,OVC,,0.00,0.0,WeatherDisplay:10.37,2013-09-23 10:06:00,
2013-09-23 12:16:00,73.9,55.7,29.90,SE,125,9.0,13.0,53,0.00,OVC,,0.00,0.0,WeatherDisplay:10.37,2013-09-23 10:16:00,
2013-09-23 12:26:00,73.9,55.7,29.90,SSW,199,9.0,14.0,53,0.00,OVC,,0.00,0.0,WeatherDisplay:10.37,2013-09-23 10:26:00,
2013-09-23 12:36:00,73.9,55.7,29.90,South,179,12.0,15.0,53,0.00,OVC,,0.00,0.0,WeatherDisplay:10.37,2013-09-23 10:36:00,
2013-09-23 12:46:00,73.9,55.7,29.90,South,179,8.0,13.0,53,0.00,OVC,,0.00,0.0,WeatherDisplay:10.37,2013-09-23 10:46:00,
2013-09-23 12:56:00,73.9,55.7,29.90,South,183,7.0,11.0,53,0.00,OVC,,0.00,0.0,WeatherDisplay:10.37,2013-09-23 10:56:00,
2013-09-23 13:06:00,73.9,55.7,29.90,South,185,7.0,9.0,53,0.00,OVC,,0.00,0.0,WeatherDisplay:10.37,2013-09-23 11:06:00,
2013-09-23 13:16:00,73.9,55.7,29.90,SSW,208,6.0,9.0,53,0.00,OVC,,0.00,0.0,WeatherDisplay:10.37,2013-09-23 11:16:00,
2013-09-23 13:26:00,73.9,55.7,29.90,SSW,196,5.0,9.0,53,0.00,OVC,,0.00,0.0,WeatherDisplay:10.37,2013-09-23 11:26:00,
2013-09-23 13:36:00,73.9,55.7,29.88,SSW,210,6.0,10.0,53,0.00,OVC,,0.00,0.0,WeatherDisplay:10.37,2013-09-23 11:36:00,
2013-09-23 13:46:00,73.9,55.7,29.87,WSW,255,5.0,8.0,53,0.00,OVC,,0.00,0.0,WeatherDisplay:10.37,2013-09-23 11:46:00,
2013-09-23 13:56:00,73.9,55.7,29.87,South,190,5.0,9.0,53,0.00,OVC,,0.00,0.0,WeatherDisplay:10.37,2013-09-23 11:56:00,
2013-09-23 14:06:00,73.9,55.7,29.87,South,187,5.0,8.0,53,0.00,OVC,,0.00,0.0,WeatherDisplay:10.37,2013-09-23 12:06:00,
2013-09-23 14:16:00,73.9,55.7,29.87,South,191,6.0,7.0,53,0.00,OVC,,0.00,0.0,WeatherDisplay:10.37,2013-09-23 12:16:00,
2013-09-23 14:26:00,73.9,55.7,29.87,SSW,209,5.0,8.0,53,0.00,OVC,,0.00,0.0,WeatherDisplay:10.37,2013-09-23 12:26:00,
2013-09-23 14:36:00,73.9,55.7,29.87,SSW,209,5.0,6.0,53,0.00,OVC,,0.00,0.0,WeatherDisplay:10.37,2013-09-23 12:36:00,
2013-09-23 14:46:00,73.9,55.7,29.87,SW,236,5.0,9.0,53,0.00,OVC,,0.00,0.0,WeatherDisplay:10.37,2013-09-23 12:46:00,
2013-09-23 14:56:00,73.9,55.7,29.87,SW,219,6.0,10.0,53,0.00,OVC,,0.00,0.0,WeatherDisplay:10.37,2013-09-23 12:56:00,
2013-09-23 15:06:00,73.9,55.7,29.87,SSW,196,6.0,8.0,53,0.00,OVC,,0.00,0.0,WeatherDisplay:10.37,2013-09-23 13:06:00,
2013-09-23 15:16:00,73.9,55.7,29.87,SW,224,5.0,8.0,53,0.00,OVC,,0.00,0.0,WeatherDisplay:10.37,2013-09-23 13:16:00,
2013-09-23 15:26:00,73.9,55.7,29.87,WSW,246,3.0,10.0,53,0.00,OVC,,0.00,0.0,WeatherDisplay:10.37,2013-09-23 13:26:00,
2013-09-23 15:36:00,73.9,55.7,29.87,WSW,240,3.0,8.0,53,0.00,OVC,,0.00,0.0,WeatherDisplay:10.37,2013-09-23 13:36:00,
2013-09-23 15:46:00,73.9,55.7,29.87,West,271,7.0,10.0,53,0.00,OVC,,0.00,0.0,WeatherDisplay:10.37,2013-09-23 13:46:00,
2013-09-23 15:56:00,73.9,55.7,29.84,WSW,244,7.0,10.0,53,0.00,OVC,,0.00,0.0,WeatherDisplay:10.37,2013-09-23 13:56:00,
2013-09-23 16:06:00,73.9,55.7,29.84,WSW,252,7.0,11.0,53,0.00,FEW,,0.00,0.0,WeatherDisplay:10.37,2013-09-23 14:06:00,
2013-09-23 16:16:00,73.9,55.7,29.84,WSW,252,5.0,11.0,53,0.00,FEW,,0.00,0.0,WeatherDisplay:10.37,2013-09-23 14:16:00,
2013-09-23 16:26:00,73.9,55.7,29.84,WSW,241,6.0,12.0,53,0.00,FEW,,0.00,0.0,WeatherDisplay:10.37,2013-09-23 14:26:00,
2013-09-23 16:36:00,73.9,55.7,29.84,SW,228,5.0,9.0,53,0.00,FEW,,0.00,0.0,WeatherDisplay:10.37,2013-09-23 14:36:00,
2013-09-23 16:46:00,73.9,55.7,29.84,WSW,237,5.0,7.0,53,0.00,FEW,,0.00,0.0,WeatherDisplay:10.37,2013-09-23 14:46:00,
2013-09-23 16:56:00,73.9,55.7,29.84,WSW,247,5.0,10.0,53,0.00,FEW,,0.00,0.0,WeatherDisplay:10.37,2013-09-23 14:56:00,
2013-09-23 17:06:00,73.9,55.7,29.84,SW,235,8.0,12.0,53,0.00,CLR,,0.00,0.0,WeatherDisplay:10.37,2013-09-23 15:06:00,
2013-09-23 17:16:00,73.9,55.7,29.87,SW,227,5.0,10.0,53,0.00,CLR,,0.00,0.0,WeatherDisplay:10.37,2013-09-23 15:16:00,
2013-09-23 17:26:00,73.9,55.7,29.84,WSW,245,6.0,10.0,53,0.00,CLR,,0.00,0.0,WeatherDisplay:10.37,2013-09-23 15:26:00,
2013-09-23 17:36:00,73.9,55.7,29.84,SW,235,5.0,8.0,53,0.00,CLR,,0.00,0.0,WeatherDisplay:10.37,2013-09-23 15:36:00,
2013-09-23 17:46:00,73.9,55.7,29.84,WSW,237,5.0,7.0,53,0.00,CLR,,0.00,0.0,WeatherDisplay:10.37,2013-09-23 15:46:00,
2013-09-23 17:56:00,73.9,55.7,29.84,WSW,246,7.0,9.0,53,0.00,CLR,,0.00,0.0,WeatherDisplay:10.37,2013-09-23 15:56:00,
2013-09-23 18:06:00,73.9,55.7,29.84,WSW,244,6.0,9.0,53,0.00,CLR,,0.00,0.0,WeatherDisplay:10.37,2013-09-23 16:06:00,
2013-09-23 18:16:00,73.9,55.7,29.84,WSW,243,5.0,9.0,53,0.00,CLR,,0.00,0.0,WeatherDisplay:10.37,2013-09-23 16:16:00,
2013-09-23 18:26:00,73.9,55.7,29.84,West,270,5.0,10.0,53,0.00,CLR,,0.00,0.0,WeatherDisplay:10.37,2013-09-23 16:26:00,
2013-09-23 18:36:00,73.9,55.7,29.82,WNW,282,5.0,9.0,53,0.00,CLR,,0.00,0.0,WeatherDisplay:10.37,2013-09-23 16:36:00,
2013-09-23 18:46:00,73.9,55.7,29.81,WNW,299,6.0,9.0,53,0.00,CLR,,0.00,0.0,WeatherDisplay:10.37,2013-09-23 16:46:00,
2013-09-23 18:56:00,73.9,55.7,29.81,NW,322,5.0,9.0,53,0.00,CLR,,0.00,0.0,WeatherDisplay:10.37,2013-09-23 16:56:00,
2013-09-23 19:06:00,73.9,55.7,29.81,NW,315,2.0,6.0,53,0.00,CLR,,0.00,0.0,WeatherDisplay:10.37,2013-09-23 17:06:00,
2013-09-23 19:16:00,73.9,55.7,29.81,North,350,5.0,6.0,53,0.00,CLR,,0.00,0.0,WeatherDisplay:10.37,2013-09-23 17:16:00,
2013-09-23 19:26:00,73.9,55.7,29.81,NNW,346,6.0,8.0,53,0.00,CLR,,0.00,0.0,WeatherDisplay:10.37,2013-09-23 17:26:00,
2013-09-23 19:36:00,73.9,55.7,29.81,NNW,341,5.0,9.0,53,0.00,CLR,,0.00,0.0,WeatherDisplay:10.37,2013-09-23 17:36:00,
2013-09-23 19:46:00,73.9,55.7,29.81,North,349,5.0,6.0,53,0.00,CLR,,0.00,0.0,WeatherDisplay:10.37,2013-09-23 17:46:00,
2013-09-23 19:56:00,73.9,55.7,29.81,North,1,5.0,6.0,53,0.00,CLR,,0.00,0.0,WeatherDisplay:10.37,2013-09-23 17:56:00,
2013-09-23 20:06:00,73.9,55.7,29.81,North,358,3.0,6.0,53,0.00,CLR,,0.00,0.0,WeatherDisplay:10.37,2013-09-23 18:06:00,
2013-09-23 20:16:00,73.9,55.7,29.81,NNE,30,2.0,5.0,53,0.00,CLR,,0.00,0.0,WeatherDisplay:10.37,2013-09-23 18:16:00,
2013-09-23 20:26:00,73.9,55.7,29.81,NNE,18,3.0,6.0,53,0.00,CLR,,0.00,0.0,WeatherDisplay:10.37,2013-09-23 18:26:00,
2013-09-23 20:36:00,73.9,55.7,29.81,NNE,22,5.0,6.0,53,0.00,CLR,,0.00,0.0,WeatherDisplay:10.37,2013-09-23 18:36:00,
2013-09-23 20:46:00,73.9,55.7,29.81,NNE,26,3.0,6.0,53,0.00,CLR,,0.00,0.0,WeatherDisplay:10.37,2013-09-23 18:46:00,
2013-09-23 20:56:00,73.9,55.7,29.81,NNE,30,3.0,6.0,53,0.00,CLR,,0.00,0.0,WeatherDisplay:10.37,2013-09-23 18:56:00,
2013-09-23 21:06:00,73.9,55.7,29.81,NNE,26,6.0,8.0,53,0.00,CLR,,0.00,0.0,WeatherDisplay:10.37,2013-09-23 19:06:00,
2013-09-23 21:16:00,73.9,55.7,29.81,NNE,27,3.0,8.0,53,0.00,CLR,,0.00,0.0,WeatherDisplay:10.37,2013-09-23 19:16:00,
2013-09-23 21:26:00,73.9,55.7,29.81,NNE,26,5.0,7.0,53,0.00,CLR,,0.00,0.0,WeatherDisplay:10.37,2013-09-23 19:26:00,
2013-09-23 21:36:00,73.9,55.7,29.81,NNE,26,5.0,7.0,53,0.00,CLR,,0.00,0.0,WeatherDisplay:10.37,2013-09-23 19:36:00,
2013-09-23 21:46:00,73.9,55.7,29.81,NNE,25,5.0,8.0,53,0.00,CLR,,0.00,0.0,WeatherDisplay:10.37,2013-09-23 19:46:00,
2013-09-23 21:56:00,73.9,55.7,29.81,NNE,22,5.0,7.0,53,0.00,CLR,,0.00,0.0,WeatherDisplay:10.37,2013-09-23 19:56:00,
2013-09-23 22:16:00,73.9,55.7,29.81,NNE,16,3.0,6.0,53,0.00,CLR,,0.00,0.0,WeatherDisplay:10.37,2013-09-23 20:16:00,
2013-09-23 22:26:00,73.9,55.7,29.81,NNE,18,3.0,5.0,53,0.00,CLR,,0.00,0.0,WeatherDisplay:10.37,2013-09-23 20:26:00,
2013-09-23 22:36:00,73.9,55.7,29.81,NE,37,3.0,5.0,53,0.00,CLR,,0.00,0.0,WeatherDisplay:10.37,2013-09-23 20:36:00,
2013-09-23 22:46:00,73.9,55.7,29.81,NNE,28,3.0,5.0,53,0.00,CLR,,0.00,0.0,WeatherDisplay:10.37,2013-09-23 20:46:00,
2013-09-23 22:56:00,73.9,55.7,29.81,NNE,24,3.0,5.0,53,0.00,CLR,,0.00,0.0,WeatherDisplay:10.37,2013-09-23 20:56:00,
2013-09-23 23:06:00,73.9,55.7,29.81,NNE,26,3.0,6.0,53,0.00,CLR,,0.00,0.0,WeatherDisplay:10.37,2013-09-23 21:06:00,
2013-09-23 23:16:00,73.9,55.7,29.81,NNE,28,3.0,5.0,53,0.00,CLR,,0.00,0.0,WeatherDisplay:10.37,2013-09-23 21:16:00,
2013-09-23 23:26:00,73.9,55.7,29.81,NNE,23,3.0,5.0,53,0.00,CLR,,0.00,0.0,WeatherDisplay:10.37,2013-09-23 21:26:00,
2013-09-23 23:36:00,73.9,55.7,29.81,NNE,26,2.0,5.0,53,0.00,CLR,,0.00,0.0,WeatherDisplay:10.37,2013-09-23 21:36:00,
2013-09-23 23:46:00,73.9,55.7,29.81,NE,36,2.0,4.0,53,0.00,CLR,,0.00,0.0,WeatherDisplay:10.37,2013-09-23 21:46:00,
2013-09-23 23:56:00,73.9,55.7,29.78,NE,38,3.0,4.0,53,0.00,CLR,,0.00,0.0,WeatherDisplay:10.37,2013-09-23 21:56:00,